Regional Weather Roundup
Issued by NWS Upton, NY

Current Version | Previous Version | Text Only | Print | Product List | Glossary On
Versions: 1 2 3 4 5 6 7 8 9 10 11 12 13 14 15 16 17 18 19 20 21 22 23 24 25 26 27
000 ASUS41 KOKX 172208 RWROKX REGIONAL WEATHER ROUNDUP NATIONAL WEATHER SERVICE NEW YORK NY 500 PM EST TUE JAN 17 2017 NOTE: "FAIR" INDICATES FEW OR NO CLOUDS BELOW 12,000 FEET WITH NO SIGNIFICANT WEATHER AND/OR OBSTRUCTIONS TO VISIBILITY. NYZ071-072-176-178-NJZ106-104-172300- NEW YORK CITY METRO AREA CITY SKY/WX TMP DP RH WIND PRES REMARKS Central Park CLOUDY 40 37 89 E7 30.11S FOG Wall St Helipt CLOUDY 41 38 89 NE8 30.10F Bronx Bot Gard NOT AVBL LaGuardia APRT CLOUDY 40 37 89 NE10 30.09F FOG WCI 33 Kennedy INTL CLOUDY 40 35 83 E9 30.11F HAZE WCI 34 Breezy Point N/A 39 N/A N/A E10 N/A WCI 32 Newark/Liberty CLOUDY 41 37 86 E8 30.09S FOG Teterboro LGT RAIN 40 37 89 E5 30.08F FOG $$ NYZ177-179-078>081-172300- LONG ISLAND NEW YORK CITY SKY/WX TMP DP RH WIND PRES REMARKS Jones Beach N/A 37 N/A N/A E10 N/A WCI 30 Matinecock PT NOT AVBL Farmingdale LGT RAIN 38 36 92 SE6 30.10S FOG WCI 33 MacArthur/ISP LGT RAIN 38 37 97 SE7 30.10F FOG WCI 33 Shirley CLOUDY 39 37 92 VRB5 30.11F FOG Westhampton LGT RAIN 38 34 85 E7 30.12F WCI 33 Southampton NOT AVBL Bridgehampton NOT AVBL East Hampton CLOUDY 37 33 87 E5 30.13F WCI 33 Montauk N/A 39 34 82 E5 30.15F $$ NYZ052-065-067-172300- HUDSON VALLEY CITY SKY/WX TMP DP RH WIND PRES REMARKS White Plains CLOUDY 36 33 89 E7 30.08S FOG WCI 30 Newburgh RAIN 34 34 100 E8 30.10F FOG WCI 27 Montgomery CLOUDY 35 33 92 N5 30.08S FOG WCI 31 Poughkeepsie LGT RAIN 34 32 92 E3 30.10S FOG Albany FRZ RAIN 33 30 88 E3 30.11F FOG $$ NJZ001-105-106-008-010-013-015-019>022-104-172300- NEW JERSEY CITY SKY/WX TMP DP RH WIND PRES REMARKS Newark/Liberty CLOUDY 41 37 86 E8 30.09S FOG Teterboro LGT RAIN 40 37 89 E5 30.08F FOG Caldwell LGT RAIN 38 36 92 E5 30.09F FOG WCI 34 Somerville CLOUDY 39 35 86 VRB3 30.04F FOG Linden CLOUDY 40 37 88 SE6 30.09S Sussex LGT RAIN 35 35 100 E3 30.07R FOG Andover N/A 36 34 92 NE3 30.06S Trenton CLOUDY 43 37 79 E9 30.03F Millville CLOUDY 44 44 100 SE8 30.03F Atlantic City CLOUDY 45 42 89 SE7 30.05F Wrightstown CLOUDY 43 40 88 SE9 30.02S Toms River LGT RAIN 43 39 86 SE5 30.07F Belmar LGT RAIN 42 39 89 E7 30.08F $$ PAZ047>061-062-071-172300- EASTERN PENNSYLVANIA CITY SKY/WX TMP DP RH WIND PRES REMARKS Philadelphia CLOUDY 45 42 89 SE8 30.03F Allentown LGT RAIN 37 34 89 E8 30.03F FOG WCI 31 Scranton LGT RAIN 38 36 92 E5 29.98F WCI 34 $$ CTZ002-004>006-009-010-012-RIZ004-006-007-MAZ004-011-015-172300- SOUTHERN NEW ENGLAND IN CT CITY SKY/WX TMP DP RH WIND PRES REMARKS Bradley INTL LGT RAIN 35 29 78 CALM 30.14S Hartford CLOUDY 37 31 78 N3 30.14S Danbury CLOUDY 34 28 79 E6 30.11S WCI 29 Wtrbury/Oxford CLOUDY 36 28 75 SE5 30.10F WCI 32 Bridgeport CLOUDY 40 32 73 E15 30.11F WCI 32 Meriden LGT RAIN 38 33 82 NE3 30.12F New Haven LGT RAIN 38 31 76 E9 30.12F WCI 31 Chester CLOUDY 36 32 87 SE3 30.12F Groton LGT RAIN 39 28 64 E9 30.14F WCI 33 Wilimantic LGT RAIN 41 24 51 CALM 30.15S IN RI CITY SKY/WX TMP DP RH WIND PRES REMARKS Providence LGT RAIN 39 32 76 E6 30.17S WCI 35 Block Island NOT AVBL Westerly LGT RAIN 39 25 57 CALM 30.16F IN MA CITY SKY/WX TMP DP RH WIND PRES REMARKS Boston CLOUDY 41 32 70 E9 30.19S Worcester CLOUDY 35 28 75 E9 30.12F WCI 28 Westfield LGT RAIN 34 30 85 N3 30.14R Provincetown CLOUDY 42 34 73 E12 30.20R Nantucket CLOUDY 40 31 70 N3 30.17S $$ ANZ330-335-338-340-345-350-353-355-172300- COASTAL MARINE OBSERVATIONS STATION/POSITION TIME SKY/WX TEMP WIND PRES VSBY WAVE AIR SEA DIR/SP/G HT/PER (UTC) (F) (DEG/KT/KT) (MB) (MI) (FT/S) NY HARB ENTRANCE 2050 42 44 100/ 12/ 14 1018.7 1/10 20 S FIRE ISLAND 2050 43 45 110/ 10/ 12 1019.4 1/10 GREAT SOUTH BAY NOT AVBL 23 SSW MONTAUK P 2050 43 48 110/ 10/ 12 1020.7 1/10 15 E BARNEGAT LI 2130 43 N/A 2/10 HUDSON CANYON 2050 47 53 1019.9 1/ 9 KINGS POINT 2124 38 38 1019.1 EXECUTION ROCKS 2145 38 70/ 10/ 12 N/A CENTRAL LI SOUND 2130 40 100/ 14/ 16 N/A 1/ 3 EASTERN LI SOUND NOT AVBL ROBBINS REEF 2148 40 100/ 10/ 12 1018.9 $$ >>>>>>>>>>>>>>>>>>>>>>>>>>>> KEY <<<<<<<<<<<<<<<<<<<<<<<<<<< > < > SKY/WX - Sky Condition/Present Weather < > TMP - Temperature in Fahrenheit < > DP - Dew Point in Fahrenheit < > RH - Relative Humidity in Percent < > WIND - Direction (from) and Speed in MPH < > PRES - Mean Sea Level Pressure (inches of Hg) < > WCI - Wind Chill Index < > VSB - VISIBILITY IN MILES < > HX - HEAT INDEX < > TC - TEMPERATURE IN CELSIUS < > VRB - VARIABLE WIND DIRECTION < > < >>>>>>>>>>>>>>>>>>>>>>>>>>>> KEY <<<<<<<<<<<<<<<<<<<<<<<<<<<

USA.gov is the U.S. government's official web portal to all federal, state and local government web resources and services.